| time (UTC) | temp F | wind direction | speed knots | gust knots | rain 1hr in | rain 24hr in | rain mn in | humidity % | barometer mb |
| 20260506002018 | 51 | 63 | 4.3 | 9.6 | 0.00 | 0.00 | 0.00 | 84 | 1011.1 |
| 20260506001518 | 51 | 106 | 4.3 | 10.4 | 0.00 | 0.00 | 0.00 | 84 | 1011.0 |
| 20260506001012 | 51 | 18 | 4.3 | 10.4 | 0.00 | 0.00 | 0.00 | 83 | 1011.1 |
| 20260506000012 | 51 | 53 | 4.3 | 14.8 | 0.00 | 0.00 | 0.00 | 83 | 1011.2 |
| 20260505235012 | 51 | 78 | 3.5 | 10.4 | 0.00 | 0.00 | 0.00 | 83 | 1011.1 |
| 20260505234512 | 51 | 61 | 3.5 | 9.6 | 0.00 | 0.00 | 0.00 | 84 | 1011.2 |
| 20260505234007 | 51 | 81 | 5.2 | 10.4 | 0.00 | 0.00 | 0.00 | 84 | 1011.2 |
| 20260505233506 | 51 | 42 | 4.3 | 10.4 | 0.00 | 0.00 | 0.00 | 83 | 1011.2 |
| 20260505233006 | 51 | 79 | 4.3 | 10.4 | 0.00 | 0.00 | 0.00 | 83 | 1011.1 |
| 20260505232506 | 51 | 327 | 4.3 | 10.4 | 0.00 | 0.00 | 0.00 | 84 | 1011.1 |
| 20260505232006 | 51 | 84 | 4.3 | 11.3 | 0.00 | 0.00 | 0.00 | 84 | 1011.2 |
| 20260505231506 | 52 | 80 | 4.3 | 11.3 | 0.00 | 0.00 | 0.00 | 85 | 1011.1 |
| 20260505231000 | 52 | 40 | 4.3 | 10.4 | 0.00 | 0.00 | 0.00 | 85 | 1011.1 |
| 20260505230500 | 52 | 72 | 5.2 | 10.4 | 0.00 | 0.00 | 0.00 | 85 | 1011.1 |
| 20260505230001 | 52 | 69 | 4.3 | 10.4 | 0.00 | 0.00 | 0.00 | 86 | 1011.2 |
| 20260505225500 | 52 | 64 | 4.3 | 10.4 | 0.00 | 0.00 | 0.00 | 86 | 1011.2 |
| 20260505225000 | 52 | 66 | 4.3 | 10.4 | 0.00 | 0.00 | 0.00 | 87 | 1011.2 |
| 20260505223955 | 51 | 60 | 6.1 | 13.0 | 0.00 | 0.00 | 0.00 | 86 | 1011.3 |
| 20260505222953 | 51 | 40 | 6.1 | 12.2 | 0.00 | 0.00 | 0.00 | 86 | 1011.2 |
| 20260505222454 | 51 | 8 | 6.1 | 13.0 | 0.00 | 0.00 | 0.00 | 86 | 1011.2 |
| 20260505221954 | 51 | 49 | 6.1 | 13.0 | 0.00 | 0.00 | 0.00 | 86 | 1011.3 |
| 20260505221454 | 51 | 49 | 6.1 | 12.2 | 0.00 | 0.00 | 0.00 | 86 | 1011.2 |
| 20260505220451 | 52 | 65 | 6.1 | 12.2 | 0.00 | 0.00 | 0.00 | 87 | 1011.3 |
| 20260505215952 | 52 | 39 | 6.1 | 13.0 | 0.00 | 0.00 | 0.00 | 87 | 1011.3 |
| 20260505215452 | 52 | 55 | 7.0 | 13.9 | 0.00 | 0.00 | 0.00 | 86 | 1011.2 |
| 20260505214452 | 52 | 75 | 5.2 | 10.4 | 0.00 | 0.00 | 0.00 | 84 | 1011.2 |
| 20260505213446 | 52 | 67 | 5.2 | 10.4 | 0.00 | 0.00 | 0.00 | 82 | 1011.2 |
| 20260505212946 | 52 | 68 | 5.2 | 10.4 | 0.00 | 0.00 | 0.00 | 80 | 1011.2 |
| 20260505211446 | 52 | 37 | 6.1 | 12.2 | 0.00 | 0.00 | 0.00 | 76 | 1011.3 |
| 20260505210946 | 51 | 49 | 6.1 | 12.2 | 0.00 | 0.00 | 0.00 | 77 | 1011.3 |
| 20260505210439 | 51 | 49 | 5.2 | 12.2 | 0.00 | 0.00 | 0.00 | 78 | 1011.3 |
| 20260505205441 | 51 | 58 | 5.2 | 9.6 | 0.00 | 0.00 | 0.00 | 80 | 1011.2 |
| 20260505204940 | 51 | 74 | 5.2 | 7.0 | 0.00 | 0.00 | 0.00 | 82 | 1011.2 |
| 20260505203528 | 51 | 77 | 5.2 | 10.4 | 0.00 | 0.00 | 0.00 | 83 | 1011.2 |
| 20260505202025 | 51 | 56 | 4.3 | 7.8 | 0.00 | 0.00 | 0.00 | 85 | 1011.1 |
| 20260505201525 | 51 | 56 | 4.3 | 7.8 | 0.00 | 0.00 | 0.00 | 85 | 1011.0 |
| 20260505201024 | 51 | 59 | 4.3 | 7.8 | 0.00 | 0.00 | 0.00 | 85 | 1011.0 |
| 20260505200524 | 51 | 46 | 3.5 | 8.7 | 0.00 | 0.00 | 0.00 | 85 | 1010.9 |
| 20260505200023 | 51 | 49 | 4.3 | 8.7 | 0.00 | 0.00 | 0.00 | 85 | 1010.9 |
| 20260505195522 | 51 | 47 | 4.3 | 7.8 | 0.00 | 0.00 | 0.00 | 84 | 1010.9 |
| 20260505195017 | 51 | 59 | 4.3 | 7.8 | 0.00 | 0.00 | 0.00 | 84 | 1010.8 |
| 20260505194516 | 51 | 74 | 3.5 | 7.8 | 0.00 | 0.00 | 0.00 | 84 | 1010.6 |
| 20260505194017 | 51 | 346 | 4.3 | 8.7 | 0.00 | 0.00 | 0.00 | 84 | 1010.6 |
| 20260505193517 | 52 | 72 | 4.3 | 9.6 | 0.00 | 0.00 | 0.00 | 84 | 1010.6 |
| 20260505193017 | 52 | 69 | 4.3 | 9.6 | 0.00 | 0.00 | 0.00 | 84 | 1010.7 |
| 20260505192517 | 52 | 62 | 5.2 | 8.7 | 0.00 | 0.00 | 0.00 | 83 | 1010.6 |
| 20260505191514 | 52 | 48 | 4.3 | 9.6 | 0.00 | 0.00 | 0.00 | 82 | 1010.5 |
| 20260505191010 | 52 | 56 | 4.3 | 7.8 | 0.00 | 0.00 | 0.00 | 83 | 1010.5 |
| 20260505190508 | 52 | 51 | 4.3 | 8.7 | 0.00 | 0.00 | 0.00 | 82 | 1010.4 |
| 20260505190002 | 53 | 57 | 5.2 | 10.4 | 0.00 | 0.00 | 0.00 | 81 | 1010.4 |
| 20260505185500 | 53 | 94 | 5.2 | 9.6 | 0.00 | 0.00 | 0.00 | 80 | 1010.4 |
| 20260505184954 | 53 | 41 | 4.3 | 8.7 | 0.00 | 0.00 | 0.00 | 81 | 1010.4 |
| 20260505184447 | 53 | 43 | 4.3 | 8.7 | 0.00 | 0.00 | 0.00 | 80 | 1010.4 |
| 20260505183944 | 53 | 34 | 4.3 | 8.7 | 0.00 | 0.00 | 0.00 | 79 | 1010.4 |
| 20260505183440 | 53 | 58 | 4.3 | 7.8 | 0.00 | 0.00 | 0.00 | 79 | 1010.4 |
| 20260505182439 | 54 | 49 | 5.2 | 9.6 | 0.00 | 0.00 | 0.00 | 78 | 1010.4 |
| 20260505181439 | 54 | 49 | 3.5 | 7.0 | 0.00 | 0.00 | 0.00 | 77 | 1010.3 |
| 20260505180938 | 54 | 67 | 3.5 | 7.0 | 0.00 | 0.00 | 0.00 | 77 | 1010.3 |
| 20260505175940 | 54 | 66 | 3.5 | 7.0 | 0.00 | 0.00 | 0.00 | 77 | 1010.4 |
| 20260505175440 | 54 | 60 | 2.6 | 5.2 | 0.00 | 0.00 | 0.00 | 78 | 1010.3 |
| 20260505173934 | 54 | 63 | 4.3 | 7.8 | 0.00 | 0.00 | 0.00 | 78 | 1010.3 |
| 20260505173434 | 54 | 47 | 4.3 | 7.8 | 0.00 | 0.00 | 0.00 | 78 | 1010.3 |
| 20260505172935 | 54 | 46 | 3.5 | 8.7 | 0.00 | 0.00 | 0.00 | 78 | 1010.3 |
| 20260505172436 | 54 | 59 | 4.3 | 8.7 | 0.00 | 0.00 | 0.00 | 78 | 1010.3 |
| 20260505171931 | 54 | 94 | 4.3 | 8.7 | 0.00 | 0.00 | 0.00 | 78 | 1010.2 |
| 20260505170931 | 54 | 41 | 4.3 | 8.7 | 0.00 | 0.00 | 0.00 | 77 | 1010.3 |
| 20260505170431 | 55 | 60 | 4.3 | 7.8 | 0.00 | 0.00 | 0.00 | 77 | 1010.3 |
| 20260505165931 | 55 | 51 | 4.3 | 8.7 | 0.00 | 0.00 | 0.00 | 75 | 1010.3 |
| 20260505165432 | 55 | 41 | 4.3 | 8.7 | 0.00 | 0.00 | 0.00 | 76 | 1010.3 |
| 20260505164926 | 55 | 35 | 4.3 | 8.7 | 0.00 | 0.00 | 0.00 | 75 | 1010.4 |
| 20260505164427 | 55 | 95 | 3.5 | 7.0 | 0.00 | 0.00 | 0.00 | 77 | 1010.4 |
| 20260505163920 | 55 | 60 | 4.3 | 7.8 | 0.00 | 0.00 | 0.00 | 77 | 1010.3 |
| 20260505163420 | 55 | 105 | 4.3 | 8.7 | 0.00 | 0.00 | 0.00 | 77 | 1010.4 |
| 20260505162918 | 55 | 55 | 5.2 | 8.7 | 0.00 | 0.00 | 0.00 | 77 | 1010.4 |
| 20260505161914 | 55 | 57 | 3.5 | 9.6 | 0.00 | 0.00 | 0.00 | 75 | 1010.4 |
| 20260505161415 | 55 | 62 | 4.3 | 8.7 | 0.00 | 0.00 | 0.00 | 77 | 1010.3 |
| 20260505160912 | 55 | 75 | 5.2 | 8.7 | 0.00 | 0.00 | 0.00 | 77 | 1010.3 |
| 20260505151459 | 53 | 59 | 5.2 | 8.7 | 0.00 | 0.00 | 0.00 | 82 | 1010.7 |
| 20260505150958 | 53 | 57 | 4.3 | 8.7 | 0.00 | 0.00 | 0.00 | 82 | 1010.6 |
| 20260505150458 | 53 | 24 | 5.2 | 10.4 | 0.00 | 0.00 | 0.00 | 84 | 1010.7 |
| 20260505140448 | 54 | 40 | 6.1 | 11.3 | 0.00 | 0.00 | 0.00 | 83 | 1011.0 |
| 20260505124935 | 53 | 51 | 5.2 | 12.2 | 0.00 | 0.00 | 0.00 | 82 | 1011.2 |
| 20260505124435 | 53 | 61 | 5.2 | 12.2 | 0.00 | 0.00 | 0.00 | 82 | 1011.2 |
| 20260505122930 | 53 | 1 | 5.2 | 10.4 | 0.00 | 0.00 | 0.00 | 82 | 1011.2 |
| 20260505122430 | 53 | 77 | 5.2 | 11.3 | 0.00 | 0.00 | 0.00 | 82 | 1011.2 |
| 20260505121929 | 53 | 59 | 5.2 | 11.3 | 0.00 | 0.00 | 0.00 | 81 | 1011.2 |
| 20260505121443 | 53 | 51 | 5.2 | 8.7 | 0.00 | 0.00 | 0.00 | 82 | 1011.1 |
| 20260505120424 | 53 | 33 | 5.2 | 11.3 | 0.00 | 0.00 | 0.00 | 82 | 1011.3 |
| 20260505115425 | 53 | 137 | 5.2 | 13.0 | 0.00 | 0.00 | 0.00 | 79 | 1011.2 |
| 20260505114923 | 54 | 63 | 5.2 | 9.6 | 0.00 | 0.00 | 0.00 | 83 | 1011.3 |
| 20260505114424 | 53 | 79 | 5.2 | 9.6 | 0.00 | 0.00 | 0.00 | 82 | 1011.3 |
| 20260505112916 | 53 | 71 | 5.2 | 10.4 | 0.00 | 0.00 | 0.00 | 82 | 1011.4 |
| 20260505112430 | 53 | 63 | 5.2 | 9.6 | 0.00 | 0.00 | 0.00 | 82 | 1011.3 |
| 20260505111430 | 53 | 50 | 5.2 | 10.4 | 0.00 | 0.00 | 0.00 | 82 | 1011.4 |
| 20260505102159 | 53 | 65 | 4.3 | 9.6 | 0.00 | 0.00 | 0.00 | 81 | 1011.7 |
| 20260505101658 | 53 | 358 | 4.3 | 8.7 | 0.00 | 0.00 | 0.00 | 81 | 1011.7 |
| 20260505101159 | 53 | 3 | 5.2 | 9.6 | 0.00 | 0.00 | 0.00 | 81 | 1011.8 |
| 20260505100658 | 53 | 65 | 5.2 | 10.4 | 0.00 | 0.00 | 0.00 | 80 | 1011.8 |
| 20260505100156 | 53 | 54 | 4.3 | 10.4 | 0.00 | 0.00 | 0.00 | 82 | 1011.8 |
| 20260505095656 | 53 | 48 | 4.3 | 11.3 | 0.00 | 0.00 | 0.00 | 81 | 1011.8 |
| 20260505094656 | 53 | 67 | 6.1 | 10.4 | 0.00 | 0.00 | 0.00 | 81 | 1011.8 |
| 20260505093157 | 53 | 359 | 4.3 | 7.8 | 0.00 | 0.00 | 0.00 | 82 | 1012.0 |
| 20260505092651 | 53 | 43 | 4.3 | 9.6 | 0.00 | 0.00 | 0.00 | 82 | 1011.8 |
| 20260505092152 | 53 | 74 | 4.3 | 9.6 | 0.00 | 0.00 | 0.00 | 82 | 1011.9 |
| 20260505091651 | 53 | 76 | 4.3 | 9.6 | 0.00 | 0.00 | 0.00 | 82 | 1011.8 |
| 20260505090652 | 53 | 76 | 3.5 | 8.7 | 0.00 | 0.00 | 0.00 | 83 | 1011.8 |
| 20260505090152 | 53 | 44 | 3.5 | 9.6 | 0.00 | 0.00 | 0.00 | 82 | 1011.8 |
| 20260505085152 | 52 | 48 | 4.3 | 8.7 | 0.00 | 0.00 | 0.00 | 83 | 1011.8 |
| 20260505084652 | 52 | 38 | 4.3 | 9.6 | 0.00 | 0.00 | 0.00 | 84 | 1011.8 |
| 20260505082648 | 52 | 53 | 3.5 | 7.8 | 0.00 | 0.00 | 0.00 | 84 | 1011.8 |
| 20260505082148 | 52 | 64 | 3.5 | 8.7 | 0.00 | 0.00 | 0.00 | 83 | 1011.8 |
| 20260505081647 | 51 | 28 | 3.5 | 8.7 | 0.00 | 0.00 | 0.00 | 83 | 1011.8 |
| 20260505081149 | 51 | 22 | 4.3 | 8.7 | 0.00 | 0.00 | 0.00 | 83 | 1011.8 |
| 20260505080649 | 51 | 41 | 4.3 | 9.6 | 0.00 | 0.00 | 0.00 | 83 | 1011.8 |
| 20260505080149 | 52 | 111 | 3.5 | 9.6 | 0.00 | 0.00 | 0.00 | 83 | 1011.7 |
| 20260505075649 | 52 | 42 | 3.5 | 7.8 | 0.00 | 0.00 | 0.00 | 83 | 1011.7 |
| 20260505075144 | 52 | 70 | 3.5 | 8.7 | 0.00 | 0.00 | 0.00 | 84 | 1011.7 |
| 20260505074644 | 51 | 75 | 3.5 | 8.7 | 0.00 | 0.00 | 0.00 | 85 | 1011.8 |
| 20260505074143 | 51 | 68 | 3.5 | 7.0 | 0.00 | 0.00 | 0.00 | 84 | 1011.7 |
| 20260505073644 | 51 | 66 | 3.5 | 7.0 | 0.00 | 0.00 | 0.00 | 84 | 1011.7 |
| 20260505073145 | 51 | 77 | 3.5 | 7.0 | 0.00 | 0.00 | 0.00 | 84 | 1011.9 |
| 20260505072644 | 51 | 35 | 3.5 | 7.0 | 0.00 | 0.00 | 0.00 | 85 | 1011.8 |
| 20260505072139 | 51 | 46 | 2.6 | 6.1 | 0.00 | 0.00 | 0.00 | 85 | 1011.9 |
| 20260505071140 | 51 | 82 | 4.3 | 7.0 | 0.00 | 0.00 | 0.00 | 84 | 1011.9 |
| 20260505070640 | 51 | 60 | 3.5 | 7.0 | 0.00 | 0.00 | 0.00 | 84 | 1011.8 |
| 20260505070141 | 51 | 59 | 3.5 | 7.0 | 0.00 | 0.00 | 0.00 | 84 | 1011.8 |
| 20260505065138 | 51 | 345 | 3.5 | 7.8 | 0.00 | 0.00 | 0.00 | 84 | 1011.7 |
| 20260505064138 | 51 | 46 | 3.5 | 8.7 | 0.00 | 0.00 | 0.00 | 85 | 1011.7 |
| 20260505063137 | 51 | 57 | 3.5 | 8.7 | 0.00 | 0.00 | 0.00 | 85 | 1011.7 |
| 20260505062134 | 51 | 75 | 2.6 | 7.0 | 0.00 | 0.00 | 0.00 | 85 | 1011.8 |
| 20260505061132 | 51 | 46 | 2.6 | 7.0 | 0.00 | 0.00 | 0.00 | 85 | 1011.9 |
| 20260505060632 | 51 | 61 | 2.6 | 7.0 | 0.00 | 0.00 | 0.00 | 85 | 1012.0 |
| 20260505055623 | 50 | 72 | 2.6 | 5.2 | 0.00 | 0.00 | 0.00 | 86 | 1012.1 |
| 20260505055122 | 50 | 60 | 2.6 | 5.2 | 0.00 | 0.00 | 0.00 | 86 | 1012.0 |
| 20260505054621 | 50 | 58 | 1.7 | 5.2 | 0.00 | 0.00 | 0.00 | 86 | 1012.0 |
| 20260505054119 | 50 | 67 | 2.6 | 5.2 | 0.00 | 0.00 | 0.00 | 87 | 1012.0 |
| 20260505053621 | 50 | 68 | 2.6 | 5.2 | 0.00 | 0.00 | 0.00 | 87 | 1012.0 |
| 20260505053121 | 50 | 63 | 1.7 | 5.2 | 0.00 | 0.00 | 0.00 | 87 | 1012.0 |
| 20260505052620 | 50 | 62 | 2.6 | 5.2 | 0.00 | 0.00 | 0.00 | 88 | 1012.0 |
| 20260505052114 | 49 | 27 | 2.6 | 7.0 | 0.00 | 0.00 | 0.00 | 88 | 1012.0 |
| 20260505051613 | 49 | 50 | 1.7 | 7.0 | 0.00 | 0.00 | 0.00 | 89 | 1012.0 |
| 20260505051113 | 49 | 74 | 2.6 | 6.1 | 0.00 | 0.00 | 0.00 | 89 | 1012.0 |
| 20260505050613 | 49 | 30 | 1.7 | 6.1 | 0.00 | 0.00 | 0.00 | 89 | 1012.0 |
| 20260505041610 | 49 | 72 | 2.6 | 5.2 | 0.00 | 0.00 | 0.00 | 89 | 1012.0 |
| 20260505040606 | 49 | 60 | 2.6 | 6.1 | 0.00 | 0.00 | 0.00 | 89 | 1012.1 |
| 20260505040106 | 49 | 53 | 2.6 | 6.1 | 0.00 | 0.00 | 0.00 | 89 | 1012.1 |
| 20260505035105 | 49 | 51 | 1.7 | 4.3 | 0.00 | 0.00 | 0.00 | 90 | 1012.1 |
| 20260505034604 | 49 | 58 | 2.6 | 4.3 | 0.00 | 0.00 | 0.00 | 89 | 1012.0 |
| 20260505034057 | 49 | 66 | 2.6 | 5.2 | 0.00 | 0.00 | 0.00 | 89 | 1012.1 |
| 20260505033558 | 49 | 53 | 2.6 | 6.1 | 0.00 | 0.00 | 0.00 | 89 | 1012.1 |
| 20260505033058 | 49 | 86 | 2.6 | 6.1 | 0.00 | 0.00 | 0.00 | 89 | 1012.1 |
| 20260505032558 | 49 | 62 | 1.7 | 1.7 | 0.00 | 0.00 | 0.00 | 90 | 1012.1 |
| 20260505030854 | 50 | 332 | 2.6 | 7.0 | 0.00 | 0.00 | 0.00 | 89 | 1012.4 |
| 20260505030354 | 50 | 71 | 3.5 | 7.0 | 0.00 | 0.00 | 0.00 | 89 | 1012.3 |
| 20260505025854 | 50 | 56 | 2.6 | 6.1 | 0.00 | 0.00 | 0.00 | 89 | 1012.4 |
| 20260505025348 | 50 | 86 | 2.6 | 7.0 | 0.00 | 0.00 | 0.00 | 89 | 1012.4 |
| 20260505024848 | 50 | 68 | 2.6 | 7.0 | 0.00 | 0.00 | 0.00 | 89 | 1012.5 |
| 20260505024348 | 50 | 19 | 3.5 | 6.1 | 0.00 | 0.00 | 0.00 | 89 | 1012.6 |
| 20260505023848 | 50 | 70 | 3.5 | 7.0 | 0.00 | 0.00 | 0.00 | 89 | 1012.6 |
| 20260505023348 | 51 | 44 | 2.6 | 7.0 | 0.00 | 0.00 | 0.00 | 89 | 1012.6 |
| 20260505022848 | 51 | 53 | 1.7 | 5.2 | 0.00 | 0.00 | 0.00 | 89 | 1012.6 |
| 20260505022341 | 51 | 51 | 1.7 | 4.3 | 0.00 | 0.00 | 0.00 | 89 | 1012.5 |
| 20260505021841 | 51 | 68 | 2.6 | 6.1 | 0.00 | 0.00 | 0.00 | 89 | 1012.6 |
| 20260505021341 | 51 | 60 | 2.6 | 6.1 | 0.00 | 0.00 | 0.00 | 89 | 1012.6 |
| 20260505020843 | 51 | 37 | 2.6 | 6.1 | 0.00 | 0.00 | 0.00 | 89 | 1012.6 |
| 20260505020342 | 51 | 62 | 2.6 | 8.7 | 0.00 | 0.00 | 0.00 | 89 | 1012.6 |
| 20260505015842 | 51 | 44 | 2.6 | 8.7 | 0.00 | 0.00 | 0.00 | 89 | 1012.6 |
| 20260505015338 | 51 | 77 | 2.6 | 7.0 | 0.00 | 0.00 | 0.00 | 89 | 1012.6 |
| 20260505014839 | 51 | 61 | 2.6 | 7.0 | 0.00 | 0.00 | 0.00 | 89 | 1012.6 |
| 20260505013836 | 51 | 11 | 2.6 | 7.0 | 0.00 | 0.00 | 0.00 | 90 | 1012.7 |
| 20260505012836 | 51 | 56 | 2.6 | 7.0 | 0.00 | 0.00 | 0.00 | 90 | 1012.7 |
| 20260505011830 | 51 | 58 | 2.6 | 4.3 | 0.00 | 0.00 | 0.00 | 90 | 1012.8 |
| 20260505011331 | 51 | 323 | 3.5 | 6.1 | 0.00 | 0.00 | 0.00 | 90 | 1012.9 |
| 20260505010831 | 51 | 53 | 3.5 | 6.1 | 0.00 | 0.00 | 0.00 | 90 | 1013.0 |
| 20260505010330 | 51 | 54 | 2.6 | 7.8 | 0.00 | 0.00 | 0.00 | 89 | 1013.0 |
| 20260505005323 | 51 | 49 | 3.5 | 7.8 | 0.00 | 0.00 | 0.00 | 89 | 1013.1 |
| 20260505004824 | 51 | 79 | 3.5 | 7.8 | 0.00 | 0.00 | 0.00 | 89 | 1013.1 |
| 20260505003824 | 51 | 69 | 5.2 | 7.8 | 0.00 | 0.00 | 0.00 | 90 | 1013.1 |
| 20260505002824 | 52 | 51 | 3.5 | 7.0 | 0.00 | 0.00 | 0.00 | 90 | 1013.0 |
| 20260505002320 | 52 | 65 | 3.5 | 7.8 | 0.00 | 0.00 | 0.00 | 90 | 1013.2 |